Location: Beekmeers
(50.8953°N, 3.6968°E)
Time: 02:27:17
(UTC+00:00)

Cosmos 1140 Rocket - Pass Details

Date: 23 May 2024
Orbit: 742 x 764 km, 74.1° (Epoch: 16 June)

Event Time Altitude Azimuth Distance (km) Brightness Sun altitude
Exits shadow 00:22:28 25° 228° (SW) 1,511 4.6 -17.9°
Maximum altitude 00:25:26 58° 299° (WNW) 887 3.9 -17.8°
Drops below altitude 10° 00:30:36 10° 19° (NNE) 2,306 7.3 -17.7°
Sets 00:33:02 0° 23° (NNE) 3,233 8.4 -17.6°
